Content
SEND FEEDBACK

Daily
Averages
Monthly
Summary
Bosnia and Herzegovina

ILIDZA, BOSNIA AND HERZEGOVINA


Home > Europe > Bosnia and Herzegovina
Elevation: 1677 feet     Latitude: 43 49N     Longitude: 018 19E

WEATHER
 
SELECT A DAY
Number of Records: 181,256;   Date Range: 2/20/97 - 9/30/14
 
SHARE

PRINT THIS DATA

[ ← Previous Day ]
WEATHER ALMANAC - MAY 13, 2014
[ Next Day → ]
[ °C ]   °F
Weather ElementAverageHighLow
Temperature51.8 °F60.8 °F (11:30 am)44.6 °F (1:00 am)
Dewpoint49.8 °F53.6 °F (2:00 pm)42.8 °F (2:00 am)
Humidity93.6 %100 % (1:00 am)68 % (12:00 pm)
Barometer29.92 in29.98 in (1:00 am)29.86 in (11:00 pm)
Wind Speed1.9 mph11.5 mph (12:30 pm)
Weather ElementAverage
Visibility3.6 mi
Wind DirectionNNE (30.8 °)

Weather ElementTotal
Precipitation---
Heating Degree Days12.3 (Base 65)
Growing Degree Days2.7 (Base 50)
Averaged from 37 records on May 13, 2014
WEATHER CONDITIONS BREAKOUT
WIND DIRECTION BREAKOUT
WEATHER BY HOUR - MAY 13, 2014
[ °C ]   °F
Local TimeTemperatureDewpointHumidityBarometerVisibilityWind DirectionWind SpeedGust SpeedPrecipitationEventsConditions
1:00 AM44.6 °F44.6 °F100 %29.98 inVariable1.2 mphClear
2:00 AM44.6 °F42.8 °F93 %29.95 inVariable1.2 mphClear
3:00 AM46.4 °F44.6 °F93 %29.95 in6.2 miCalmPartly Cloudy
4:00 AM46.4 °F46.4 °F100 %29.95 in6.2 miVariable1.2 mphScattered Clouds
5:00 AM46.4 °F46.4 °F100 %29.95 in6.2 miCalmScattered Clouds
5:30 AM46.4 °F46.4 °F100 %29.95 in2.5 miCalmScattered Clouds
6:00 AM46.4 °F46.4 °F100 %29.95 in1.9 miVariable1.2 mphMostly Cloudy
6:30 AM46.4 °F46.4 °F100 %29.95 in1.6 miVariable1.2 mphOvercast
7:00 AM46.4 °F46.4 °F100 %29.95 in1.1 miVariable1.2 mphOvercast
7:30 AM48.2 °F48.2 °F100 %29.95 in1.2 miCalmOvercast
8:00 AM48.2 °F48.2 °F100 %29.92 in1.6 miVariable1.2 mphMostly Cloudy
8:30 AM50.0 °F48.2 °F94 %29.92 in1.6 miVariable1.2 mphMostly Cloudy
9:00 AM50.0 °F48.2 °F94 %29.92 in2.2 miVariable2.3 mphScattered Clouds
9:30 AM51.8 °F50.0 °F94 %29.92 in3.7 miVariable1.2 mphPartly Cloudy
10:00 AM53.6 °F50.0 °F88 %29.92 in5.0 miVariable2.3 mphPartly Cloudy
10:30 AM53.6 °F50.0 °F88 %29.89 in6.2 miVariable2.3 mphPartly Cloudy
11:00 AM57.2 °F50.0 °F77 %29.89 in6.2 miVariable2.3 mphScattered Clouds
11:30 AM60.8 °F51.8 °F72 %29.89 in6.2 miVariable2.3 mphScattered Clouds
12:00 PM60.8 °F50.0 °F68 %29.89 in6.2 miSSW (210°)3.5 mphMostly Cloudy
12:30 PM57.2 °F50.0 °F77 %29.92 in6.2 miNNW (330°)11.5 mphRainLight Rain Showers
1:00 PM57.2 °F50.0 °F77 %29.92 in5.0 miNW (320°)5.8 mphRainLight Rain
1:30 PM57.2 °F50.0 °F77 %29.92 in3.7 miVariable2.3 mphRain-ThunderstormThunderstorms and Rain
2:00 PM55.4 °F53.6 °F94 %29.92 in4.3 miVariable1.2 mphRainLight Rain
3:00 PM55.4 °F53.6 °F94 %29.89 in3.7 miVariable2.3 mphRainRain
3:30 PM55.4 °F53.6 °F94 %29.89 in4.3 miVariable2.3 mphRainRain
4:00 PM55.4 °F53.6 °F94 %29.89 in3.1 miWest (280°)3.5 mphRainRain
6:00 PM53.6 °F53.6 °F100 %29.89 in1.9 miVariable2.3 mphRainRain
6:30 PM53.6 °F53.6 °F100 %29.92 in1.6 miVariable1.2 mphRainRain
7:00 PM53.6 °F51.8 °F94 %29.92 in1.9 miVariable2.3 mphRainRain
7:30 PM51.8 °F51.8 °F100 %29.89 in2.5 miVariable1.2 mphRainRain
8:00 PM51.8 °F51.8 °F100 %29.89 in5.0 miCalmRainRain
8:30 PM51.8 °F51.8 °F100 %29.89 in3.1 miVariable1.2 mphRainRain
9:00 PM51.8 °F51.8 °F100 %29.89 in3.1 miVariable1.2 mphRainRain
9:30 PM51.8 °F51.8 °F100 %29.89 in2.5 miVariable2.3 mphRainRain
10:00 PM51.8 °F51.8 °F100 %29.89 in2.5 miVariable1.2 mphRainRain
10:30 PM51.8 °F51.8 °F100 %29.89 in2.5 miVariable1.2 mphRainRain
11:00 PM51.8 °F51.8 °F100 %29.86 in2.5 miVariable1.2 mphRainLight Rain
Hourly data recorded from LQSA, located miles away from Ilidza, Bosnia and Herzegovina







STORIES FROM OUR PARTNERS